• In Lithuania
  • List of Countries
  • For 7 days
  • Water Temperature
  • Satellite Maps
  • Weather Map
  • Weather Widgets
  • user-avatar
    Login

    Hourly Weather Florianópolis

    Today, 22 October, Sunday

    Time Temperature Precipitation Wind Pressure Humidity
    00:00 +23°C° 0 mm 2 mps 757 mmHg 97%
    01:00 +23°C° 0 mm 2 mps 757 mmHg 96%
    02:00 +23°C° 0 mm 2 mps 757 mmHg 96%
    03:00 +21°C° 0 mm 2 mps 757 mmHg 95%
    04:00 +21°C° 0 mm 3 mps 757 mmHg 95%
    05:00 +21°C° 0 mm 3 mps 758 mmHg 95%
    06:00 +21°C° 0 mm 3 mps 758 mmHg 95%
    07:00 +22°C° 0 mm 4 mps 758 mmHg 89%
    08:00 +25°C° 0 mm 5 mps 759 mmHg 83%
    09:00 +26°C° 0 mm 5 mps 760 mmHg 77%
    10:00 +26°C° 0.2 mm 6 mps 760 mmHg 81%
    11:00 +24°C° 0.2 mm 6 mps 760 mmHg 85%
    12:00 +24°C° 0.2 mm 6 mps 761 mmHg 88%
    13:00 +23°C° 0.1 mm 7 mps 761 mmHg 88%
    14:00 +23°C° 0.1 mm 7 mps 761 mmHg 88%
    15:00 +22°C° 0.1 mm 7 mps 761 mmHg 88%
    16:00 +21°C° 0 mm 7 mps 761 mmHg 89%
    17:00 +20°C° 0 mm 7 mps 761 mmHg 89%
    18:00 +18°C° 0 mm 7 mps 762 mmHg 90%
    19:00 +17°C° 0 mm 6 mps 762 mmHg 92%
    20:00 +16°C° 0 mm 6 mps 763 mmHg 94%
    21:00 +15°C° 0 mm 6 mps 764 mmHg 96%
    22:00 +14°C° 0 mm 5 mps 764 mmHg 96%
    23:00 +14°C° 0 mm 5 mps 764 mmHg 95%

    Tomorrow, 23 October, Monday

    Time Temperature Precipitation Wind Pressure Humidity
    00:00 +14°C° 0 mm 5 mps 765 mmHg 95%
    01:00 +14°C° 0 mm 5 mps 764 mmHg 95%
    02:00 +13°C° 0 mm 5 mps 764 mmHg 94%
    03:00 +13°C° 0 mm 5 mps 764 mmHg 94%
    04:00 +13°C° 0 mm 4 mps 765 mmHg 94%
    05:00 +13°C° 0 mm 4 mps 765 mmHg 95%
    06:00 +12°C° 0 mm 4 mps 765 mmHg 96%
    07:00 +15°C° 0 mm 4 mps 765 mmHg 82%
    08:00 +19°C° 0 mm 3 mps 766 mmHg 68%
    09:00 +22°C° 0 mm 3 mps 766 mmHg 55%
    10:00 +25°C° 0 mm 3 mps 765 mmHg 50%
    11:00 +26°C° 0 mm 4 mps 765 mmHg 45%
    12:00 +28°C° 0 mm 4 mps 765 mmHg 40%
    13:00 +27°C° 0 mm 4 mps 764 mmHg 44%
    14:00 +26°C° 0 mm 4 mps 764 mmHg 49%
    15:00 +26°C° 0 mm 4 mps 764 mmHg 53%
    16:00 +23°C° 0 mm 4 mps 764 mmHg 60%
    17:00 +21°C° 0 mm 3 mps 764 mmHg 67%
    18:00 +19°C° 0 mm 3 mps 764 mmHg 74%
    19:00 +18°C° 0 mm 2 mps 765 mmHg 79%
    20:00 +17°C° 0 mm 2 mps 765 mmHg 84%
    21:00 +15°C° 0 mm 1 mps 766 mmHg 89%
    22:00 +15°C° 0 mm 1 mps 766 mmHg 88%
    23:00 +16°C° 0 mm 1 mps 766 mmHg 88%

    Day after tomorrow, 24 October, Tuesday

    Time Temperature Precipitation Wind Pressure Humidity
    00:00 +16°C° 0 mm 1 mps 765 mmHg 88%
    01:00 +16°C° 0 mm 1 mps 765 mmHg 88%
    02:00 +16°C° 0 mm 1 mps 764 mmHg 89%
    03:00 +15°C° 0 mm 1 mps 764 mmHg 90%
    04:00 +16°C° 0 mm 1 mps 764 mmHg 90%
    05:00 +16°C° 0 mm 1 mps 764 mmHg 91%
    06:00 +16°C° 0 mm 1 mps 764 mmHg 91%
    07:00 +17°C° 0 mm 2 mps 765 mmHg 86%
    08:00 +19°C° 0 mm 2 mps 765 mmHg 81%
    09:00 +20°C° 0 mm 2 mps 765 mmHg 76%
    10:00 +23°C° 0 mm 2 mps 765 mmHg 73%
    11:00 +24°C° 0 mm 3 mps 765 mmHg 69%
    12:00 +25°C° 0 mm 3 mps 765 mmHg 66%
    13:00 +25°C° 0 mm 4 mps 764 mmHg 66%
    14:00 +26°C° 0 mm 4 mps 763 mmHg 66%
    15:00 +26°C° 0 mm 4 mps 763 mmHg 66%
    16:00 +25°C° 0 mm 4 mps 763 mmHg 72%
    17:00 +23°C° 0 mm 4 mps 763 mmHg 79%
    18:00 +22°C° 0 mm 4 mps 763 mmHg 85%
    19:00 +21°C° 0 mm 4 mps 764 mmHg 88%
    20:00 +20°C° 0 mm 4 mps 764 mmHg 92%
    21:00 +20°C° 0 mm 4 mps 765 mmHg 95%
    22:00 +20°C° 0.1 mm 4 mps 765 mmHg 96%
    23:00 +20°C° 0.1 mm 4 mps 764 mmHg 96%

    25 October, Wednesday

    Time Temperature Precipitation Wind Pressure Humidity
    00:00 +20°C° 0.1 mm 4 mps 764 mmHg 96%
    01:00 +20°C° 0.1 mm 4 mps 764 mmHg 96%
    02:00 +20°C° 0.1 mm 4 mps 763 mmHg 97%
    03:00 +20°C° 0.1 mm 4 mps 763 mmHg 97%
    04:00 +20°C° 0.1 mm 4 mps 763 mmHg 97%
    05:00 +20°C° 0.1 mm 3 mps 763 mmHg 97%
    06:00 +20°C° 0.1 mm 3 mps 763 mmHg 97%
    07:00 +21°C° 0.1 mm 3 mps 763 mmHg 95%
    08:00 +22°C° 0.1 mm 3 mps 763 mmHg 92%
    09:00 +22°C° 0.1 mm 4 mps 764 mmHg 90%
    10:00 +22°C° 0.3 mm 4 mps 764 mmHg 92%
    11:00 +22°C° 0.3 mm 4 mps 763 mmHg 93%
    12:00 +23°C° 0.3 mm 4 mps 763 mmHg 95%
    13:00 +23°C° 0.4 mm 4 mps 762 mmHg 94%
    14:00 +23°C° 0.4 mm 4 mps 762 mmHg 94%
    15:00 +23°C° 0.4 mm 5 mps 761 mmHg 94%
    16:00 +23°C° 0.4 mm 5 mps 761 mmHg 95%
    17:00 +22°C° 0.4 mm 5 mps 761 mmHg 96%
    18:00 +22°C° 0.4 mm 5 mps 761 mmHg 97%
    19:00 +22°C° 0.5 mm 5 mps 761 mmHg 97%
    20:00 +22°C° 0.5 mm 6 mps 762 mmHg 97%
    21:00 +22°C° 0.5 mm 6 mps 762 mmHg 98%
    22:00 +22°C° 0.8 mm 6 mps 761 mmHg 98%
    23:00 +22°C° 0.8 mm 6 mps 761 mmHg 98%

    26 October, Thursday

    Time Temperature Precipitation Wind Pressure Humidity
    00:00 +22°C° 0.8 mm 6 mps 760 mmHg 98%
    01:00 +22°C° 0.6 mm 6 mps 760 mmHg 98%
    02:00 +22°C° 0.6 mm 6 mps 759 mmHg 98%
    03:00 +22°C° 0.6 mm 6 mps 759 mmHg 98%
    04:00 +22°C° 0.1 mm 5 mps 759 mmHg 98%
    05:00 +22°C° 0.1 mm 5 mps 759 mmHg 98%
    06:00 +22°C° 0.1 mm 4 mps 759 mmHg 98%
    07:00 +23°C° 0.1 mm 4 mps 759 mmHg 95%
    08:00 +25°C° 0.1 mm 4 mps 759 mmHg 92%
    09:00 +26°C° 0.1 mm 3 mps 759 mmHg 89%
    10:00 +27°C° 0 mm 4 mps 759 mmHg 80%
    11:00 +29°C° 0 mm 4 mps 758 mmHg 71%
    12:00 +32°C° 0 mm 4 mps 757 mmHg 62%
    13:00 +33°C° 0 mm 4 mps 757 mmHg 57%
    14:00 +34°C° 0 mm 5 mps 756 mmHg 52%
    15:00 +35°C° 0 mm 5 mps 755 mmHg 48%
    16:00 +33°C° 0.9 mm 4 mps 755 mmHg 62%
    17:00 +29°C° 0.9 mm 4 mps 756 mmHg 77%
    18:00 +26°C° 0.9 mm 3 mps 756 mmHg 91%
    19:00 +26°C° 0.2 mm 3 mps 756 mmHg 93%
    20:00 +25°C° 0.2 mm 2 mps 756 mmHg 95%
    21:00 +24°C° 0.2 mm 2 mps 757 mmHg 97%
    22:00 +24°C° 0.2 mm 2 mps 756 mmHg 96%
    23:00 +24°C° 0.2 mm 2 mps 756 mmHg 96%

    27 October, Friday

    Time Temperature Precipitation Wind Pressure Humidity
    00:00 +23°C° 0.2 mm 1 mps 756 mmHg 96%
    01:00 +23°C° 0 mm 1 mps 756 mmHg 95%
    02:00 +23°C° 0 mm 2 mps 755 mmHg 95%
    03:00 +23°C° 0 mm 2 mps 755 mmHg 94%
    04:00 +23°C° 0 mm 2 mps 755 mmHg 93%
    05:00 +23°C° 0 mm 2 mps 756 mmHg 93%
    06:00 +23°C° 0 mm 2 mps 756 mmHg 92%
    07:00 +26°C° 0 mm 2 mps 756 mmHg 80%
    08:00 +29°C° 0 mm 2 mps 756 mmHg 67%
    09:00 +32°C° 0 mm 2 mps 756 mmHg 54%
    10:00 +34°C° 0 mm 3 mps 756 mmHg 50%
    11:00 +35°C° 0 mm 3 mps 756 mmHg 47%
    12:00 +36°C° 0 mm 4 mps 755 mmHg 43%
    13:00 +34°C° 0.6 mm 5 mps 755 mmHg 57%
    14:00 +32°C° 0.6 mm 5 mps 755 mmHg 71%
    15:00 +28°C° 0.6 mm 6 mps 755 mmHg 85%
    16:00 +27°C° 0.6 mm 6 mps 755 mmHg 87%
    17:00 +26°C° 0.6 mm 6 mps 755 mmHg 89%
    18:00 +24°C° 0.6 mm 6 mps 756 mmHg 91%
    19:00 +23°C° 0.9 mm 6 mps 756 mmHg 93%
    20:00 +22°C° 0.9 mm 5 mps 757 mmHg 96%
    21:00 +21°C° 0.9 mm 5 mps 758 mmHg 98%
    22:00 +21°C° 0.2 mm 4 mps 757 mmHg 98%
    23:00 +21°C° 0.2 mm 4 mps 757 mmHg 98%
    Show more